Date String (YYYY-MM-DD hh:mm:ss) UTC,Instrument flags,Ambient pressure (hPa),Sample flow (lpm),Bypass flow (lpm),Sample temperature (°C),Ambient temperature (°C),ASC tube jacket temperature (°C),LED temperature (°C),Box temperature (°C),Sample RH (%),Span deviation,Mass concentration (μg/m³),Mass concentration (μg/m³),Mass concentration (μg/m³)
DateTimeUTC,F1_M11,P_M11,Q1_M11,Q2_M11,T1_M11,T2_M11,T3_M11,T4_M11,T5_M11,U1_M11,ZSPAN_M11,X0_M11,X2_M11,X1_M11
2021-11-13 09:00:00,,0827.7,5.00,0.00,26.0,25.2,00.0,35.1,27.8,15.2,0000.0,0001.30,0000.82,0000.56
2021-11-13 09:01:00,,0827.7,5.00,0.00,26.0,25.2,00.0,35.1,27.7,15.4,0000.0,0001.29,0000.82,0000.57
2021-11-13 09:02:00,,0827.7,4.99,0.00,26.0,25.2,00.0,35.1,27.7,15.4,0000.0,0001.36,0000.86,0000.58
2021-11-13 09:03:00,,0827.7,4.99,0.00,26.0,25.2,00.0,35.1,27.7,15.3,0000.0,0001.73,0000.89,0000.60
2021-11-13 09:04:00,,0827.8,5.01,0.00,26.0,25.1,00.0,35.1,27.7,15.3,0000.0,0001.78,0000.90,0000.61
2021-11-13 09:05:00,,0827.8,4.99,0.00,26.0,25.2,00.0,35.1,27.8,15.4,0000.0,0001.80,0000.92,0000.63
2021-11-13 09:06:00,,0827.8,5.01,0.00,26.0,25.2,00.0,35.1,27.7,15.4,0000.0,0001.88,0000.97,0000.64
2021-11-13 09:07:00,,0827.8,5.00,0.00,26.0,25.1,00.0,35.1,27.7,15.6,0000.0,0002.03,0001.00,0000.65
2021-11-13 09:08:00,,0827.8,5.00,0.00,26.0,25.1,00.0,35.1,27.7,15.6,0000.0,0001.99,0000.99,0000.64
2021-11-13 09:09:00,,0827.8,5.00,0.00,26.0,25.1,00.0,35.1,27.7,15.5,0000.0,0002.62,0000.98,0000.65
2021-11-13 09:10:00,,0827.7,5.00,0.00,26.0,25.1,00.0,35.1,27.7,15.6,0000.0,0003.37,0000.98,0000.65
2021-11-13 09:11:00,,0827.7,5.00,0.00,26.0,25.1,00.0,35.1,27.6,15.7,0000.0,0003.30,0000.95,0000.63
2021-11-13 09:12:00,,0827.7,5.00,0.00,26.0,25.1,00.0,35.0,27.7,15.6,0000.0,0003.23,0000.92,0000.63
2021-11-13 09:13:00,,0827.7,5.02,0.00,26.0,25.1,00.0,35.0,27.6,15.6,0000.0,0003.48,0000.88,0000.61
2021-11-13 09:14:00,,0827.7,4.99,0.00,26.0,25.1,00.0,35.0,27.7,15.7,0000.0,0003.56,0000.85,0000.59
2021-11-13 09:15:00,,0827.7,5.01,0.00,26.0,25.0,00.0,35.0,27.8,15.6,0000.0,0004.83,0000.84,0000.58
2021-11-13 09:16:00,,0827.7,4.99,0.00,26.0,25.0,00.0,35.0,27.7,15.7,0000.0,0005.13,0000.84,0000.56
2021-11-13 09:17:00,,0827.8,5.01,0.00,25.9,25.0,00.0,35.0,27.6,15.7,0000.0,0005.06,0000.80,0000.54
2021-11-13 09:18:00,,0827.9,5.00,0.00,25.9,24.9,00.0,35.0,27.5,15.8,0000.0,0004.97,0000.78,0000.52
2021-11-13 09:19:00,,0827.8,5.00,0.00,25.9,24.9,00.0,35.0,27.6,15.8,0000.0,0004.91,0000.75,0000.51
2021-11-13 09:20:00,,0827.9,5.00,0.00,25.9,25.0,00.0,35.0,27.6,15.8,0000.0,0004.15,0000.67,0000.49
2021-11-13 09:21:00,,0827.8,4.99,0.00,25.9,24.9,00.0,35.0,27.5,15.9,0000.0,0003.36,0000.65,0000.48
2021-11-13 09:22:00,,0827.9,5.01,0.00,25.8,24.9,00.0,35.0,27.5,15.9,0000.0,0003.46,0000.68,0000.47
2021-11-13 09:23:00,,0827.8,4.99,0.00,25.8,24.9,00.0,35.0,27.5,15.9,0000.0,0003.67,0000.71,0000.46
2021-11-13 09:24:00,,0827.8,4.99,0.00,25.8,24.9,00.0,35.0,27.5,15.8,0000.0,0003.58,0000.71,0000.45
2021-11-13 09:25:00,,0827.9,4.99,0.00,25.8,24.8,00.0,34.9,27.5,15.9,0000.0,0003.35,0000.72,0000.45
2021-11-13 09:26:00,,0827.9,4.98,0.00,25.8,24.8,00.0,34.9,27.4,16.0,0000.0,0002.10,0000.72,0000.45
2021-11-13 09:27:00,,0827.9,5.00,0.00,25.7,24.8,00.0,34.9,27.4,16.0,0000.0,0001.48,0000.67,0000.45
2021-11-13 09:28:00,,0827.9,5.01,0.00,25.8,24.8,00.0,34.9,27.4,15.9,0000.0,0001.51,0000.68,0000.45
2021-11-13 09:29:00,,0827.9,5.00,0.00,25.7,24.8,00.0,34.9,27.4,16.0,0000.0,0001.48,0000.66,0000.45
2021-11-13 09:30:00,,0827.9,4.99,0.00,25.7,24.8,00.0,34.9,27.5,16.0,0000.0,0001.45,0000.65,0000.45
2021-11-13 09:31:00,,0828.0,4.99,0.00,25.7,24.9,00.0,34.9,27.5,15.9,0000.0,0001.43,0000.64,0000.44
2021-11-13 09:32:00,,0828.0,5.00,0.00,25.7,24.9,00.0,34.9,27.5,16.0,0000.0,0001.45,0000.64,0000.44
2021-11-13 09:33:00,,0828.0,5.00,0.00,25.8,24.9,00.0,34.8,27.4,15.9,0000.0,0001.40,0000.61,0000.43
2021-11-13 09:34:00,,0827.9,5.00,0.00,25.7,24.9,00.0,34.8,27.4,15.9,0000.0,0001.18,0000.56,0000.41
2021-11-13 09:35:00,,0827.9,5.00,0.00,25.7,24.9,00.0,34.8,27.4,15.8,0000.0,0000.98,0000.53,0000.40
2021-11-13 09:36:00,,0827.9,4.98,0.00,25.7,24.9,00.0,34.8,27.4,15.9,0000.0,0001.00,0000.53,0000.38
2021-11-13 09:37:00,,0828.1,5.01,0.00,25.7,24.8,00.0,34.8,27.4,15.9,0000.0,0000.90,0000.50,0000.37
2021-11-13 09:38:00,,0828.0,5.00,0.00,25.7,24.8,00.0,34.8,27.4,16.0,0000.0,0001.10,0000.49,0000.35
2021-11-13 09:39:00,,0827.9,4.99,0.00,25.7,24.8,00.0,34.8,27.4,16.0,0000.0,0001.04,0000.46,0000.34
2021-11-13 09:40:00,,0827.9,5.01,0.00,25.7,24.8,00.0,34.8,27.4,16.0,0000.0,0001.55,0000.44,0000.32
2021-11-13 09:41:00,,0827.9,5.00,0.00,25.7,24.8,00.0,34.8,27.3,16.0,0000.0,0003.36,0000.45,0000.30
2021-11-13 09:42:00,,0827.9,5.00,0.00,25.6,24.8,00.0,34.8,27.3,16.1,0000.0,0003.48,0000.45,0000.28
2021-11-13 09:43:00,,0827.8,4.99,0.00,25.6,24.7,00.0,34.8,27.3,16.0,0000.0,0003.66,0000.44,0000.28
2021-11-13 09:44:00,,0827.9,4.99,0.00,25.6,24.7,00.0,34.8,27.3,16.1,0000.0,0004.57,0000.43,0000.27
2021-11-13 09:45:00,,0827.7,5.00,0.00,25.5,24.6,00.0,34.7,27.2,16.2,0000.0,0004.59,0000.43,0000.26
2021-11-13 09:46:00,,0827.7,5.00,0.00,25.5,24.6,00.0,34.7,27.2,16.2,0000.0,0004.60,0000.43,0000.26
2021-11-13 09:47:00,,0827.7,5.00,0.00,25.5,24.6,00.0,34.7,27.2,16.3,0000.0,0004.80,0000.43,0000.25
2021-11-13 09:48:00,,0827.8,5.00,0.00,25.4,24.5,00.0,34.7,27.1,16.3,0000.0,0004.99,0000.42,0000.25
2021-11-13 09:49:00,,0827.9,4.99,0.00,25.4,24.5,00.0,34.7,27.1,16.3,0000.0,0004.80,0000.42,0000.25
2021-11-13 09:50:00,,0828.0,5.00,0.00,25.4,24.5,00.0,34.6,27.1,16.4,0000.0,0005.48,0000.44,0000.25
2021-11-13 09:51:00,,0828.0,5.01,0.00,25.4,24.5,00.0,34.6,27.1,16.4,0000.0,0005.90,0000.42,0000.25
2021-11-13 09:52:00,,0828.0,5.00,0.00,25.4,24.5,00.0,34.6,27.1,16.4,0000.0,0004.49,0000.43,0000.25
2021-11-13 09:53:00,,0828.1,4.99,0.00,25.3,24.5,00.0,34.6,27.1,16.4,0000.0,0004.33,0000.44,0000.26
2021-11-13 09:54:00,,0828.1,5.01,0.00,25.3,24.5,00.0,34.6,27.1,16.4,0000.0,0004.16,0000.47,0000.26
2021-11-13 09:55:00,,0828.1,5.00,0.00,25.3,24.5,00.0,34.5,27.1,16.4,0000.0,0003.38,0000.46,0000.26
2021-11-13 09:56:00,,0828.0,5.00,0.00,25.3,24.5,00.0,34.5,27.1,16.4,0000.0,0003.35,0000.45,0000.25
2021-11-13 09:57:00,,0827.9,5.00,0.00,25.3,24.5,00.0,34.5,27.1,16.3,0000.0,0003.31,0000.44,0000.25
2021-11-13 09:58:00,,0827.9,4.98,0.00,25.3,24.5,00.0,34.5,27.1,16.3,0000.0,0002.99,0000.42,0000.25
2021-11-13 09:59:00,,0827.9,5.00,0.00,25.3,24.5,00.0,34.5,27.1,16.4,0000.0,0002.79,0000.41,0000.25
